Location: Casa Rossa
(45.2389°N, 12.2056°E)
Time: 04:20:51
(UTC+00:00)

Meteor 2-9 Rocket - Pass Details

Date: 14 July 2020
Orbit: 792 x 894 km, 81.3° (Epoch: 11 August)

Event Time Altitude Azimuth Distance (km) Brightness Sun altitude
Exits shadow 02:49:13 - 188° (S) 3,218 6.8 -7.6°
Reaches altitude 10° 02:51:25 10° 188° (S) 2,353 6.1 -7.3°
Maximum altitude 02:56:43 88° 102° (ESE) 802 4.2 -6.6°
Drops below altitude 10° 03:02:06 10° 11° (N) 2,389 7.4 -5.9°
Sets 03:04:31 0° 11° (NNE) 3,334 8.2 -5.5°
